Location: Barcelona
(41.3830°N, 2.1830°E)
Time: 04:13:11
(UTC+01:00)

ISS - Pass Details

Date: 12 November 2019
Orbit: 412 x 421 km, 51.6° (Epoch: 12 November)

Event Time Altitude Azimuth Distance (km) Brightness Sun altitude
Exits shadow 05:01:36 18° 92° (E) 1,101 -0.9 -29.0°
Drops below altitude 10° 05:02:40 10° 100° (E) 1,498 -0.1 -28.8°
Sets 05:04:50 0° 108° (ESE) 2,358 1.1 -28.4°
